QTR601W OERK-OTHH

Flight info

Callsign QTR601W
Flight time N/A
Altitude 33000
Route OTALI2E OTALI M440 SITER DCT LADBO T142 LAEEB LAEEB1L
Aircraft B77W/H-SDE1E2E3FGHIJ2J3J4J5M1RWXY/LB1D1

Departure

Time 2026-04-27 10:30
Airport King Khalid International Airport (OERK)

Arrival

Time N/A
Airport Hamad International Airport (OTHH)
Time Latitude Longitude Altitude Speed Heading
2026-04-27 10:05 24.96209 46.70357 2048 ft 0 kts 236°
2026-04-27 10:22 24.96220 46.70376 2050 ft 4 kts 237°
2026-04-27 10:22 24.96234 46.70399 2048 ft 3 kts 234°
2026-04-27 10:22 24.96248 46.70420 2048 ft 4 kts 248°
2026-04-27 10:23 24.96250 46.70435 2050 ft 4 kts 280°
2026-04-27 10:23 24.96244 46.70453 2048 ft 4 kts 317°
2026-04-27 10:23 24.96225 46.70468 2048 ft 3 kts 332°
2026-04-27 10:23 24.96215 46.70474 2048 ft 10 kts 330°
2026-04-27 10:26 24.96215 46.70473 2048 ft 1 kts 330°
2026-04-27 10:26 24.96251 46.70450 2048 ft 12 kts 330°
2026-04-27 10:26 24.96359 46.70415 2052 ft 10 kts 21°
2026-04-27 10:27 24.96423 46.70504 2051 ft 21 kts 60°
2026-04-27 10:27 24.96506 46.70592 2050 ft 8 kts 359°
2026-04-27 10:27 24.96596 46.70550 2049 ft 21 kts 331°
2026-04-27 10:27 24.96729 46.70467 2051 ft 25 kts 329°
2026-04-27 10:28 24.96904 46.70355 2050 ft 33 kts 330°
2026-04-27 10:28 24.97093 46.70235 2051 ft 30 kts 331°
2026-04-27 10:28 24.97283 46.70115 2050 ft 28 kts 329°
2026-04-27 10:28 24.97414 46.70082 2052 ft 14 kts 38°
2026-04-27 10:29 24.97494 46.70214 2046 ft 28 kts 65°
2026-04-27 10:29 24.97479 46.70329 2045 ft 14 kts 138°
2026-04-27 10:29 24.97416 46.70374 2044 ft 6 kts 149°
2026-04-27 10:29 24.97323 46.70436 2044 ft 38 kts 149°
2026-04-27 10:30 24.96826 46.70748 2044 ft 126 kts 150°
2026-04-27 10:30 24.95867 46.71362 2187 ft 180 kts 150°
2026-04-27 10:30 24.94716 46.72140 2650 ft 207 kts 150°
2026-04-27 10:30 24.93425 46.72981 3431 ft 218 kts 149°
2026-04-27 10:31 24.92151 46.74027 4138 ft 241 kts 140°
2026-04-27 10:31 24.90894 46.75282 5208 ft 245 kts 140°
2026-04-27 10:31 24.89611 46.76539 6369 ft 250 kts 142°
2026-04-27 10:31 24.88383 46.77963 7157 ft 265 kts 123°
2026-04-27 10:32 24.87945 46.79985 8034 ft 283 kts 88°
2026-04-27 10:32 24.88621 46.82023 9077 ft 287 kts 52°
2026-04-27 10:32 24.89863 46.83730 9993 ft 289 kts 56°
2026-04-27 10:32 24.90908 46.85681 10646 ft 302 kts 62°
2026-04-27 10:33 24.91862 46.87748 11600 ft 303 kts 64°
2026-04-27 10:33 24.92781 46.89816 12487 ft 307 kts 64°
2026-04-27 10:33 24.93747 46.92007 13130 ft 322 kts 64°
2026-04-27 10:33 24.94742 46.94262 13555 ft 342 kts 64°
2026-04-27 10:34 24.95828 46.96728 13917 ft 364 kts 63°
2026-04-27 10:34 24.96957 46.99281 14189 ft 386 kts 63°
2026-04-27 10:34 24.98166 47.02014 14457 ft 406 kts 63°
2026-04-27 10:34 24.99386 47.04888 14716 ft 419 kts 69°
2026-04-27 10:35 24.99918 47.08083 15107 ft 430 kts 91°
2026-04-27 10:35 24.99439 47.11341 15629 ft 435 kts 110°
2026-04-27 10:35 24.98087 47.14300 16167 ft 431 kts 127°
2026-04-27 10:35 24.96327 47.17014 16606 ft 439 kts 129°
2026-04-27 10:36 24.94506 47.19742 17156 ft 444 kts 129°
2026-04-27 10:36 24.92663 47.22497 17700 ft 449 kts 129°
2026-04-27 10:36 24.90802 47.25297 18215 ft 455 kts 129°
2026-04-27 10:36 24.88935 47.28135 18657 ft 459 kts 129°
2026-04-27 10:37 24.87063 47.30999 19114 ft 462 kts 129°
2026-04-27 10:37 24.85188 47.33882 19565 ft 465 kts 129°
2026-04-27 10:37 24.83302 47.36790 19992 ft 467 kts 129°
2026-04-27 10:37 24.81433 47.39673 20429 ft 470 kts 129°
2026-04-27 10:38 24.79527 47.42608 20811 ft 473 kts 129°
2026-04-27 10:38 24.77600 47.45575 21162 ft 477 kts 129°
2026-04-27 10:38 24.75663 47.48554 21541 ft 479 kts 129°
2026-04-27 10:38 24.73718 47.51540 21873 ft 482 kts 129°
2026-04-27 10:39 24.71760 47.54546 22206 ft 484 kts 129°
2026-04-27 10:39 24.69791 47.57567 22520 ft 487 kts 129°
2026-04-27 10:39 24.67809 47.60607 22834 ft 489 kts 129°
2026-04-27 10:39 24.65821 47.63653 23143 ft 491 kts 129°
2026-04-27 10:40 24.63824 47.66713 23451 ft 493 kts 129°
2026-04-27 10:40 24.61821 47.69780 23709 ft 494 kts 129°
2026-04-27 10:40 24.59812 47.72855 23979 ft 496 kts 130°
2026-04-27 10:40 24.57823 47.75897 24233 ft 496 kts 130°
2026-04-27 10:41 24.55816 47.78993 24490 ft 498 kts 128°
2026-04-27 10:41 24.54170 47.82369 24739 ft 505 kts 115°
2026-04-27 10:41 24.52944 47.86007 25002 ft 507 kts 112°
2026-04-27 10:41 24.51832 47.89683 25255 ft 509 kts 111°
2026-04-27 10:42 24.50736 47.93386 25533 ft 509 kts 111°
2026-04-27 10:42 24.49619 47.97081 25795 ft 510 kts 111°
2026-04-27 10:42 24.48470 48.00760 26054 ft 510 kts 112°
2026-04-27 10:42 24.47293 48.04428 26309 ft 510 kts 112°
2026-04-27 10:43 24.46095 48.08093 26585 ft 510 kts 113°
2026-04-27 10:43 24.44887 48.11756 26862 ft 510 kts 113°
2026-04-27 10:43 24.43678 48.15411 27132 ft 510 kts 113°
2026-04-27 10:43 24.42470 48.19062 27410 ft 509 kts 113°
2026-04-27 10:44 24.41263 48.22716 27685 ft 509 kts 113°
2026-04-27 10:44 24.40058 48.26364 27969 ft 509 kts 112°
2026-04-27 10:44 24.38852 48.30018 28253 ft 508 kts 112°
2026-04-27 10:44 24.37665 48.33611 28539 ft 508 kts 113°
2026-04-27 10:45 24.36479 48.37208 29350 ft 494 kts 112°
2026-04-27 10:45 24.35318 48.40724 30017 ft 483 kts 112°
2026-04-27 10:45 24.34179 48.44169 30485 ft 477 kts 113°
2026-04-27 10:45 24.33061 48.47545 31051 ft 469 kts 113°
2026-04-27 10:46 24.31960 48.50863 31635 ft 459 kts 113°
2026-04-27 10:46 24.30877 48.54122 32063 ft 453 kts 113°
2026-04-27 10:46 24.29780 48.57411 31928 ft 464 kts 113°
2026-04-27 10:46 24.28672 48.60735 32234 ft 461 kts 113°
2026-04-27 10:47 24.27582 48.64012 32706 ft 454 kts 113°
2026-04-27 10:47 24.26497 48.67267 32890 ft 460 kts 112°
2026-04-27 10:47 24.25376 48.70620 32869 ft 477 kts 112°
2026-04-27 10:47 24.24218 48.74084 32876 ft 492 kts 112°
2026-04-27 10:48 24.23024 48.77658 32870 ft 507 kts 112°
2026-04-27 10:48 24.21794 48.81343 32862 ft 521 kts 112°
2026-04-27 10:48 24.20534 48.85118 32866 ft 534 kts 112°
2026-04-27 10:48 24.19263 48.88982 32849 ft 545 kts 109°
2026-04-27 10:49 24.18470 48.93077 32841 ft 557 kts 95°
2026-04-27 10:49 24.18500 48.97281 32850 ft 563 kts 82°
2026-04-27 10:49 24.19485 49.05863 32850 ft 574 kts 82°
2026-04-27 10:50 24.20235 49.14666 32835 ft 577 kts 84°
2026-04-27 10:50 24.20818 49.23342 32830 ft 574 kts 84°
2026-04-27 10:51 24.21385 49.32074 32828 ft 573 kts 84°
2026-04-27 10:51 24.21970 49.40755 32835 ft 572 kts 84°
2026-04-27 10:52 24.22566 49.49449 32835 ft 572 kts 84°
2026-04-27 10:52 24.23159 49.58153 32835 ft 572 kts 84°
2026-04-27 10:53 24.24033 49.71198 32834 ft 573 kts 84°
2026-04-27 10:54 24.24609 49.79903 32838 ft 573 kts 84°
2026-04-27 10:54 24.25177 49.88553 32835 ft 572 kts 84°
2026-04-27 10:55 24.25744 49.97267 32834 ft 572 kts 84°
2026-04-27 10:55 24.26304 50.05958 32837 ft 572 kts 84°
2026-04-27 10:56 24.26860 50.14663 32833 ft 571 kts 84°
2026-04-27 10:56 24.27411 50.23349 32837 ft 571 kts 84°
2026-04-27 10:57 24.27956 50.32031 32834 ft 571 kts 84°
2026-04-27 10:57 24.28226 50.36372 32834 ft 571 kts 84°